| time (UTC) | temp F | wind direction | speed MPH | gust MPH | rain 1hr in | rain 24hr in | rain mn in | humidity % | barometer mb |
| 20260906161513 | 89 | 38 | 0.0 | 4.0 | 0.00 | 0.53 | 0.00 | 72 | 1004.1 |
| 20260906160011 | 89 | 359 | 1.0 | 3.0 | 0.00 | 0.53 | 0.00 | 75 | 1004.1 |
| 20260906154509 | 87 | 303 | 0.0 | 3.0 | 0.00 | 0.56 | 0.00 | 79 | 1004.3 |
| 20260906153008 | 88 | 73 | 2.0 | 4.0 | 0.00 | 0.56 | 0.00 | 78 | 1004.2 |
| 20260906151504 | 87 | 46 | 0.0 | 3.0 | 0.00 | 0.56 | 0.00 | 79 | 1004.3 |
| 20260906150003 | 86 | 46 | 0.0 | 4.0 | 0.00 | 0.56 | 0.00 | 82 | 1004.4 |
| 20260906144610 | 85 | 46 | 0.0 | 4.0 | 0.00 | 0.56 | 0.00 | 82 | 1004.5 |
| 20260906143101 | 84 | 83 | 0.0 | 1.0 | 0.00 | 0.56 | 0.00 | 87 | 1004.5 |
| 20260906141555 | 82 | 63 | 0.0 | 3.0 | 0.00 | 0.56 | 0.00 | 89 | 1004.5 |
| 20260906140052 | 80 | 61 | 0.0 | 2.0 | 0.00 | 0.56 | 0.00 | 92 | 1004.5 |
| 20260906134548 | 78 | 359 | 0.0 | 1.0 | 0.00 | 0.56 | 0.00 | 94 | 1004.5 |
| 20260906133050 | 77 | 63 | 0.0 | 1.0 | 0.00 | 0.56 | 0.00 | 95 | 1004.5 |
| 20260906131540 | 76 | 63 | 0.0 | 0.0 | 0.00 | 0.56 | 0.00 | 95 | 1004.6 |
| 20260906130040 | 75 | 63 | 0.0 | 0.0 | 0.00 | 0.56 | 0.00 | 95 | 1004.5 |
| 20260906124536 | 75 | 63 | 0.0 | 0.0 | 0.00 | 0.56 | 0.00 | 95 | 1004.5 |
| 20260906123042 | 74 | 65 | 0.0 | 0.0 | 0.00 | 0.56 | 0.00 | 95 | 1004.5 |
| 20260906121543 | 74 | 62 | 0.0 | 0.0 | 0.00 | 0.56 | 0.00 | 94 | 1004.3 |
| 20260906120033 | 73 | 62 | 0.0 | 0.0 | 0.00 | 0.56 | 0.00 | 95 | 1004.3 |
| 20260906114536 | 73 | 62 | 0.0 | 0.0 | 0.00 | 0.56 | 0.00 | 94 | 1004.1 |
| 20260906113030 | 73 | 62 | 0.0 | 0.0 | 0.00 | 0.56 | 0.00 | 94 | 1004.1 |
| 20260906111530 | 73 | 62 | 0.0 | 0.0 | 0.00 | 0.56 | 0.00 | 94 | 1004.1 |
| 20260906110029 | 73 | 62 | 0.0 | 0.0 | 0.00 | 0.56 | 0.00 | 94 | 1004.0 |
| 20260906104527 | 73 | 62 | 0.0 | 0.0 | 0.00 | 0.56 | 0.00 | 94 | 1003.8 |
| 20260906103025 | 73 | 64 | 0.0 | 0.0 | 0.00 | 0.56 | 0.00 | 94 | 1003.6 |
| 20260906101525 | 73 | 62 | 0.0 | 0.0 | 0.00 | 0.56 | 0.00 | 94 | 1003.4 |
| 20260906100024 | 73 | 62 | 0.0 | 0.0 | 0.00 | 0.56 | 0.00 | 94 | 1003.4 |
| 20260906094524 | 73 | 62 | 0.0 | 0.0 | 0.00 | 0.56 | 0.00 | 94 | 1003.3 |
| 20260906093042 | 73 | 62 | 0.0 | 0.0 | 0.00 | 0.56 | 0.00 | 94 | 1003.1 |
| 20260906091524 | 73 | 62 | 0.0 | 0.0 | 0.00 | 0.56 | 0.00 | 94 | 1003.1 |
| 20260906090022 | 73 | 62 | 0.0 | 0.0 | 0.00 | 0.56 | 0.00 | 94 | 1002.9 |
| 20260906084520 | 73 | 67 | 0.0 | 0.0 | 0.00 | 0.56 | 0.00 | 94 | 1002.8 |
| 20260906083022 | 73 | 64 | 0.0 | 0.0 | 0.00 | 0.56 | 0.00 | 94 | 1002.7 |
| 20260906081539 | 74 | 63 | 0.0 | 0.0 | 0.00 | 0.56 | 0.00 | 94 | 1002.8 |
| 20260906080018 | 74 | 62 | 0.0 | 0.0 | 0.00 | 0.56 | 0.00 | 94 | 1002.9 |
| 20260906074517 | 74 | 62 | 0.0 | 0.0 | 0.00 | 0.56 | 0.00 | 94 | 1003.0 |
| 20260906073034 | 74 | 62 | 0.0 | 0.0 | 0.00 | 0.56 | 0.00 | 94 | 1002.8 |
| 20260906071515 | 74 | 359 | 0.0 | 0.0 | 0.00 | 0.56 | 0.00 | 94 | 1003.0 |
| 20260906070016 | 74 | 359 | 0.0 | 0.0 | 0.00 | 0.56 | 0.00 | 94 | 1003.2 |
| 20260906064516 | 74 | 359 | 0.0 | 0.0 | 0.00 | 0.56 | 0.00 | 94 | 1002.9 |
| 20260906063013 | 74 | 359 | 0.0 | 0.0 | 0.00 | 0.56 | 0.00 | 94 | 1003.0 |
| 20260906061512 | 74 | 359 | 0.0 | 0.0 | 0.00 | 0.56 | 0.00 | 94 | 1003.1 |
| 20260906060009 | 74 | 359 | 0.0 | 0.0 | 0.00 | 0.56 | 0.00 | 94 | 1003.1 |
| 20260906054512 | 74 | 359 | 0.0 | 0.0 | 0.00 | 0.56 | 0.00 | 94 | 1003.3 |
| 20260906053007 | 74 | 359 | 0.0 | 0.0 | 0.00 | 0.56 | 0.00 | 93 | 1003.2 |
| 20260906051504 | 74 | 359 | 0.0 | 0.0 | 0.00 | 0.56 | 0.00 | 93 | 1003.6 |
| 20260906050002 | 74 | 359 | 0.0 | 0.0 | 0.00 | 0.56 | 0.56 | 93 | 1003.6 |
| 20260906044501 | 75 | 359 | 0.0 | 0.0 | 0.00 | 0.56 | 0.56 | 93 | 1003.6 |
| 20260906043001 | 75 | 359 | 0.0 | 0.0 | 0.00 | 0.56 | 0.56 | 93 | 1003.5 |
| 20260906041600 | 75 | 359 | 0.0 | 0.0 | 0.00 | 0.56 | 0.56 | 93 | 1003.9 |
| 20260906041503 | 75 | 359 | 0.0 | 0.0 | 0.00 | 0.56 | 0.56 | 93 | 1003.9 |
| 20260906040115 | 75 | 359 | 0.0 | 0.0 | 0.00 | 0.56 | 0.56 | 93 | 1003.9 |
| 20260906034600 | 75 | 359 | 0.0 | 0.0 | 0.00 | 0.56 | 0.56 | 93 | 1004.0 |
| 20260906033100 | 75 | 359 | 0.0 | 0.0 | 0.00 | 0.56 | 0.56 | 93 | 1004.3 |
| 20260906031608 | 75 | 359 | 0.0 | 0.0 | 0.00 | 0.56 | 0.56 | 93 | 1004.3 |
| 20260906031500 | 75 | 359 | 0.0 | 0.0 | 0.00 | 0.56 | 0.56 | 93 | 1004.3 |
| 20260906030109 | 75 | 359 | 0.0 | 0.0 | 0.00 | 0.56 | 0.56 | 93 | 1004.3 |
| 20260906024557 | 76 | 359 | 0.0 | 0.0 | 0.00 | 0.56 | 0.56 | 93 | 1004.4 |
| 20260906023122 | 76 | 359 | 0.0 | 0.0 | 0.00 | 0.56 | 0.56 | 92 | 1004.1 |
| 20260906021558 | 76 | 359 | 0.0 | 0.0 | 0.00 | 0.56 | 0.56 | 92 | 1003.9 |
| 20260906020057 | 76 | 359 | 0.0 | 0.0 | 0.00 | 0.56 | 0.56 | 92 | 1003.5 |
| 20260906014621 | 77 | 359 | 0.0 | 0.0 | 0.00 | 0.56 | 0.56 | 92 | 1003.2 |
| 20260906013058 | 77 | 359 | 0.0 | 0.0 | 0.00 | 0.56 | 0.56 | 92 | 1002.7 |
| 20260906011558 | 78 | 359 | 0.0 | 0.0 | 0.00 | 0.56 | 0.56 | 92 | 1002.8 |
| 20260906010056 | 78 | 359 | 0.0 | 0.0 | 0.00 | 0.56 | 0.56 | 92 | 1002.7 |
| 20260906004608 | 79 | 359 | 0.0 | 0.0 | 0.00 | 0.56 | 0.56 | 91 | 1002.6 |
| 20260906003056 | 79 | 359 | 0.0 | 0.0 | 0.00 | 0.56 | 0.56 | 90 | 1002.5 |
| 20260906001554 | 80 | 359 | 0.0 | 0.0 | 0.00 | 0.56 | 0.56 | 90 | 1002.6 |
| 20260906000106 | 81 | 359 | 0.0 | 0.0 | 0.00 | 0.56 | 0.56 | 89 | 1002.7 |
| 20260905234556 | 81 | 359 | 0.0 | 0.0 | 0.00 | 0.56 | 0.56 | 88 | 1002.6 |
| 20260905233054 | 82 | 62 | 0.0 | 1.0 | 0.00 | 0.56 | 0.56 | 87 | 1002.5 |
| 20260905231549 | 83 | 62 | 0.0 | 1.0 | 0.00 | 0.56 | 0.56 | 86 | 1002.5 |
| 20260905230051 | 84 | 73 | 0.0 | 3.0 | 0.00 | 0.56 | 0.56 | 81 | 1002.7 |
| 20260905224601 | 85 | 359 | 0.0 | 0.0 | 0.00 | 0.56 | 0.56 | 81 | 1002.6 |
| 20260905223047 | 85 | 70 | 0.0 | 2.0 | 0.00 | 0.56 | 0.56 | 80 | 1002.7 |
| 20260905221546 | 85 | 70 | 0.0 | 1.0 | 0.00 | 0.56 | 0.56 | 82 | 1002.9 |
| 20260905220046 | 85 | 70 | 0.0 | 0.0 | 0.00 | 0.56 | 0.56 | 80 | 1002.8 |
| 20260905214547 | 84 | 359 | 0.0 | 2.0 | 0.00 | 0.56 | 0.56 | 83 | 1003.1 |
| 20260905213045 | 83 | 359 | 0.0 | 0.0 | 0.00 | 0.56 | 0.56 | 85 | 1003.2 |
| 20260905211545 | 82 | 70 | 0.0 | 0.0 | 0.00 | 0.56 | 0.56 | 85 | 1002.9 |
| 20260905210045 | 82 | 70 | 0.0 | 0.0 | 0.00 | 0.56 | 0.56 | 87 | 1002.7 |
| 20260905204542 | 82 | 70 | 0.0 | 0.0 | 0.00 | 0.56 | 0.56 | 88 | 1003.0 |
| 20260905203041 | 81 | 70 | 0.0 | 0.0 | 0.00 | 0.56 | 0.56 | 90 | 1003.6 |
| 20260905201540 | 81 | 70 | 0.0 | 0.0 | 0.00 | 0.56 | 0.56 | 90 | 1003.5 |
| 20260905200049 | 81 | 70 | 0.0 | 2.0 | 0.00 | 0.56 | 0.56 | 90 | 1003.5 |
| 20260905194536 | 81 | 71 | 0.0 | 2.0 | 0.00 | 0.56 | 0.56 | 90 | 1003.9 |
| 20260905193038 | 81 | 125 | 0.0 | 3.0 | 0.00 | 0.56 | 0.56 | 91 | 1004.5 |
| 20260905191537 | 80 | 70 | 0.0 | 4.0 | 0.15 | 0.56 | 0.56 | 91 | 1004.9 |
| 20260905190046 | 79 | 70 | 0.0 | 0.0 | 0.53 | 0.56 | 0.56 | 90 | 1004.9 |
| 20260905184545 | 78 | 70 | 1.0 | 4.0 | 0.53 | 0.56 | 0.56 | 90 | 1004.7 |
| 20260905183032 | 77 | 70 | 1.0 | 8.0 | 0.53 | 0.56 | 0.56 | 89 | 1005.1 |
| 20260905181532 | 82 | 315 | 0.0 | 5.0 | 0.34 | 0.38 | 0.38 | 83 | 1005.3 |
| 20260905180031 | 88 | 305 | 1.0 | 6.0 | 0.00 | 0.04 | 0.04 | 70 | 1004.9 |
| 20260905174530 | 88 | 139 | 1.0 | 7.0 | 0.00 | 0.04 | 0.04 | 73 | 1005.0 |
| 20260905173030 | 88 | 359 | 0.0 | 2.0 | 0.00 | 0.04 | 0.04 | 75 | 1005.2 |
| 20260905171534 | 88 | 359 | 0.0 | 2.0 | 0.00 | 0.04 | 0.04 | 72 | 1005.5 |
| 20260905170028 | 88 | 70 | 0.0 | 3.0 | 0.00 | 0.04 | 0.04 | 69 | 1005.6 |
| 20260905164533 | 87 | 66 | 0.0 | 3.0 | 0.00 | 0.04 | 0.04 | 75 | 1005.7 |
| 20260905163023 | 87 | 66 | 1.0 | 5.0 | 0.02 | 0.04 | 0.04 | 77 | 1005.9 |